[Iaude] MPEC L51: 2024 LV [a=1.57,e=0.33,i=16.2,H=23.1]
    mpec at cfa.harvard.edu 
    mpec at cfa.harvard.edu
       
    Tue Jun  4 22:06:42 EDT 2024
    
    
  
M.P.E.C. 2024-L51                                  Issued 2024 June 5, 02:04 UT
     The Minor Planet Electronic Circulars contain information on unusual
         minor planets, routine data on comets and natural satellites,
         and occasional editorial announcements.  They are published
    on behalf of Division F of the International Astronomical Union by the
          Minor Planet Center, Smithsonian Astrophysical Observatory,
                          Cambridge, MA 02138, U.S.A.
			  
             Prepared using the Tamkin Foundation Computer Network
                              MPC at CFA.HARVARD.EDU
            URL https://www.minorplanetcenter.net/    ISSN 1523-6714
                                    2024 LV                                     
Observations:
     K24L00V* C2024 06 03.53756420 51 00.352-02 20 30.01         20.45wXEL051F52
     K24L00V  C2024 06 03.54758820 51 06.118-02 21 38.37         20.95wXEL051F52
     K24L00V  C2024 06 03.55746620 51 11.809-02 22 46.10         20.58wXEL051F52
     K24L00V  C2024 06 03.56748720 51 17.557-02 23 54.50         20.73wXEL051F52
     K24L00V  C2024 06 03.60519420 51 39.191-02 28 12.46         20.54GVEL051F51
     K24L00V  C2024 06 03.60584120 51 39.568-02 28 16.89         20.54GVEL051F51
     K24L00V KC2024 06 03.63319320 51 57.686-02 30 01.51         20.5 GVEL051474
     K24L00V KC2024 06 03.63509420 51 58.759-02 30 14.40         20.5 GVEL051474
     K24L00V KC2024 06 03.63890520 52 00.948-02 30 40.39         20.2 GVEL051474
     K24L00V KC2024 06 03.64269720 52 03.170-02 31 06.10         20.5 GVEL051474
     K24L00V 1C2024 06 04.02577 20 55 57.62 -03 17 06.7          20.6 VXEL051033
     K24L00V 1C2024 06 04.02674 20 55 58.23 -03 17 13.9          20.6 VXEL051033
     K24L00V 1C2024 06 04.02771 20 55 58.79 -03 17 20.6          20.5 VXEL051033
     K24L00V 1C2024 06 04.02869 20 55 59.39 -03 17 27.5          20.9 VXEL051033
     K24L00V KB2024 06 04.06846820 56 24.01 -03 21 58.1          20.1 GXEL051I93
     K24L00V KB2024 06 04.07760020 56 29.45 -03 23 00.8          19.9 GXEL051I93
     K24L00V KC2024 06 04.65054521 02 23.700-04 28 25.10         20.2 GVEL051474
     K24L00V KC2024 06 04.65244821 02 24.869-04 28 38.71         20.5 GVEL051474
     K24L00V KC2024 06 04.65434821 02 26.014-04 28 52.28         20.5 GVEL051474
     K24L00V KC2024 06 04.65625021 02 27.175-04 29 05.46         20.6 GVEL051474
     K24L00V 1C2024 06 05.03335 21 06 25.57 -05 15 57.5          20.5 VXEL051033
     K24L00V 1C2024 06 05.03421 21 06 26.09 -05 16 03.6          20.5 VXEL051033
     K24L00V 1C2024 06 05.04078 21 06 30.10 -05 16 51.2          20.1 VXEL051033
     K24L00V 1C2024 06 05.04164 21 06 30.61 -05 16 58.0          20.0 VXEL051033
Observer details:
033 Karl Schwarzschild Observatory, Tautenburg.  Observers C. Heogner, F.
    Ludwig, M. Hartmann, B. Stecklum.  Measurer B. Stecklum.  1.34-m f/3
    Schmidt + CCD.
474 Mount John Observatory, Lake Tekapo.  Observers A. C. Gilmore, P. M.
    Kilmartin.  Measurer P. M. Kilmartin.  1.0-m f/7.7 Reflector + CCD.
F51 Pan-STARRS 1, Haleakala.  Observers J. Herman, T. Lowe, P. Minguez, A.
    Schultz, I. Smith.  Measurers K. Chambers, T. de Boer, J. Fairlamb, H.
    Gao, M. Huber, C.-C. Lin, E. Magnier, Y. Ramanjooloo, R. Wainscoat, R.
    Weryk.  1.8-m Ritchey-Chretien + CCD.
F52 Pan-STARRS 2, Haleakala.  Observers J. Herman, T. Lowe, P. Minguez, A.
    Schultz, I. Smith.  Measurers K. Chambers, T. de Boer, J. Fairlamb, H.
    Gao, M. Huber, C.-C. Lin, E. Magnier, Y. Ramanjooloo, R. Wainscoat, R.
    Weryk.  1.8-m Ritchey-Chretien + CCD.
I93 St Pardon de Conques.  Observer F. Losse.  0.40-m f/3.7 reflector + CMO.
Orbital elements:
2024 LV                                                  Earth MOID = 0.0435 AU
Epoch 2024 Mar. 31.0 TT = JDT 2460400.5                 Veres                   
M 315.85610              (2000.0)            P               Q                  
n   0.50201559     Peri.  198.98161     +0.20287120     +0.93939689             
a   1.5679225      Node    83.47060     -0.85856991     +0.30635811             
e   0.3324073      Incl.   16.15088     -0.47085133     -0.15387718             
P   1.96           H   23.17          G   0.15           U   8                  
Residuals in seconds of arc
240603 F52  0.0   0.1-    240603 474  0.7-  0.1+    240604 474  0.3-  0.0
240603 F52  0.0   0.1+    240603 474  0.6-  0.4+    240604 474  0.0   0.1-
240603 F52  0.3+  0.1-    240604 033  0.3-  0.2+    240604 474  0.0   0.1-
240603 F52  0.2+  0.0     240604 033  0.2+  0.3-    240604 474  0.3+  0.2+
240603 F51  0.0   0.0     240604 033  0.1-  0.2-    240605 033  0.2+  0.0
240603 F51  0.1+  0.0     240604 033  0.2+  0.3-    240605 033  0.1+  0.1+
240603 474  0.3+  0.2-    240604 I93  0.8+  0.5+    240605 033  0.4-  0.2-
240603 474  0.2-  0.1-    240604 I93  0.9+  1.5+    240605 033  0.8-  0.8-
Ephemeris:
2024 LV                  a,e,i = 1.57, 0.33, 16                  q = 1.0467
Date    TT    R. A. (2000) Decl.     Delta      r    Elong.  Phase     V
2024 05 06    18 01 18.9 +20 35 53   0.2487  1.1557   120.7    48.7    22.3
...
2024 05 21    19 06 05.4 +15 00 13   0.1637  1.1046   120.7    52.0    21.4
...
2024 05 29    20 00 40.7 +06 47 18   0.1283  1.0830   119.8    54.3    20.9
...
2024 06 04    20 55 39.2 -03 12 59   0.1109  1.0698   117.3    57.5    20.6
2024 06 05    21 06 01.8 -05 10 46   0.1090  1.0679   116.6    58.2    20.6
2024 06 06    21 16 43.1 -07 12 00   0.1076  1.0660   115.8    59.0    20.6
...
2024 06 12    22 25 24.9 -19 28 33   0.1065  1.0566   110.0    64.6    20.7
...
2024 06 20    23 55 24.0 -31 39 57   0.1240  1.0489   102.0    71.4    21.2
...
2024 07 05    01 49 19.2 -39 58 43   0.1852  1.0496    95.1    74.8    22.2
M. P. C. Staff               (C) Copyright 2024 MPC           M.P.E.C. 2024-L51
    
    
More information about the Iaude
mailing list